Tracking 18844 objects as of 21-Nov-2017
HD Live streaming from Space Station
objects crossing your sky now

FENGYUN 1C DEB

Track FENGYUN 1C DEB now!
10-day predictions


NORAD ID: 29758
Int'l Code: 1999-025AY
Perigee: 822.1 km
Apogee: 867.8 km
Inclination: 98.9 °
Period: 101.7 minutes
Semi major axis: 7215 km
RCS: 0.0129 m2 (small)
Launch date: May 10, 1999
Source: People's Republic of China (PRC)
Launch site: Taiyaun Space Center, China (TSC)

Note: This is SATELLITE DEBRIS
aabbcc
Your satellite tracking list
Your tracking list is empty




NASA's NSSDC Master Catalog

Two Line Element Set (TLE):
1 29758U 99025AY  17324.84744185  .00001108  00000-0  57809-3 0  9996
2 29758  98.9480  16.8082 0031675 142.3722 271.4952 14.16334532558537
Source of the keplerian elements: AFSPC